Flag for Egypt Weather past 2 weeks in Port Said, Egypt

Now
72 °F

Sunny.


Feels Like: 75 °F
Forecast: 65 / 84 °F
Wind: 14 mph from East

Location: Port Said Airport

Current Time: Apr 19, 2015 at 1:19:05 PM

Latest Report: Apr 19, 2015 at 12:00 PM


Visibility: 10 mi

Pressure: 30.09 "Hg

Humidity: 65%

Dew point: 59 °F

Location of Port SaidLocation

Historic Weather in Port Said — Graph

°F

Port Said temperature yesterday

Maximum temperature yesterday: 70 °F (at 12:00 PM)
Minimum temperature yesterday: 61 °F (at 4:00 AM)
Average temperature yesterday: 65 °F

Past Weeks' High & Low Weather Summary

 TemperatureHumidityPressure
High86 °F (Apr 7, 1:00 PM)100% (Apr 6, 5:00 AM)30.30 "Hg (Apr 6, 5:00 AM)
Low52 °F (Apr 11, 6:00 AM)33% (Apr 7, 1:00 PM)29.59 "Hg (Apr 8, 7:00 PM)
Average64 °F73%30.04 "Hg
* Reported Apr 4 12:00 Noon — Apr 19 12:00 Noon, Port Said, Weather by CustomWeather, © 2015

Note: Actual official high and low records may vary slightly from our data, if they occured in-between our weather recording intervals... More about our weather records

Advertising

Port Said weather history for previous 24 hours

 ConditionsComfort  
Time TempWeatherWind HumidityBarometerVisibility
12:00 PM
Sun, Apr 19
72 °FSunny.14 mph65%30.09 "Hg10 mi
11:00 AM72 °FSunny.13 mph65%30.09 "Hg10 mi
10:00 AM72 °FSunny.6 mph65%30.12 "Hg10 mi
9:00 AM70 °FSunny.7 mph69%30.12 "Hg10 mi
8:00 AM66 °FSunny.5 mph68%30.12 "Hg10 mi
7:00 AM64 °FSunny.6 mph78%30.12 "Hg10 mi
6:00 AM61 °FSunny.5 mph88%30.09 "Hg10 mi
5:00 AM63 °FClear.7 mph83%30.09 "Hg10 mi
4:00 AM63 °FClear.7 mph83%30.09 "Hg10 mi
3:00 AM63 °FClear.6 mph83%30.09 "Hg10 mi
2:00 AM64 °FClear.7 mph78%30.09 "Hg10 mi
1:00 AM64 °FClear.7 mph73%30.12 "Hg10 mi
12:00 AM64 °FClear.8 mph73%30.15 "Hg10 mi
11:00 PM
Sat, Apr 18
64 °FClear.8 mph73%30.15 "Hg10 mi
9:00 PM66 °FClear.6 mph68%30.15 "Hg10 mi
8:00 PM66 °FClear.5 mph68%30.15 "Hg10 mi
7:00 PM66 °FClear.7 mph68%30.15 "Hg10 mi
6:00 PM66 °FSunny.7 mph68%30.15 "Hg10 mi
5:00 PM68 °FSunny.7 mph64%30.15 "Hg10 mi
4:00 PM68 °FSunny.13 mph60%30.15 "Hg10 mi
3:00 PM68 °FSunny.10 mph60%30.15 "Hg10 mi
2:00 PM68 °FSunny.9 mph60%30.18 "Hg10 mi
1:00 PM70 °FSunny.7 mph60%30.21 "Hg10 mi
Weather by CustomWeather, © 2015

See weather overviewHow to use our weather pages